Regional Weather Roundup
Issued by NWS Charleston, SC

Home | Current Version | Previous Version | Text Only | Print | Product List | Glossary On
Versions: 1 2 3 4 5 6 7 8 9 10 11 12 13 14 15 16 17 18 19 20 21 22 23 24 25 26 27 28 29 30 31 32 33 34 35 36 37 38 39 40 41 42 43 44 45 46 47 48 49 50
000
ASUS42 KCHS 162025
RWRCHS

REGIONAL WEATHER ROUNDUP
NATIONAL WEATHER SERVICE CHARLESTON SC
400 PM EDT TUE SEP 16 2014

NOTE: "FAIR" INDICATES FEW OR NO CLOUDS BELOW 12,000 FEET WITH NO
SIGNIFICANT WEATHER AND/OR OBSTRUCTIONS TO VISIBILITY.

NOT ALL STATIONS ARE QUALITY CONTROLLED BY THE NATIONAL
WEATHER SERVICE. USE DATA WITH CAUTION...ESPECIALLY
DEWPOINT OBSERVATIONS.

SCZ027-030-031-034>040-042>050-162100-
...SOUTH CAROLINA...

CITY           SKY/WX    TMP DP  RH WIND       PRES   REMARKS
N CHARLESTON   TSTM      79  73  83 S9        29.96S
WATERFRONT PRK   N/A     79 N/A N/A NE16        N/A
FORT JOHNSON   NOT AVBL
MOUNT PLEASANT DRIZZLE   75  75 100 SE5       29.96F
JOHNS ISLAND   PTCLDY    81  81 100 CALM      29.96F HX  91
PINOPOLIS        N/A     90  73  58 NW2       29.87F HX  98
MONCKS CORNER    N/A     88  75  66 CALM      29.95S HX  97
SUMMERVILLE    FAIR      82  77  83 E3        29.95F HX  91
BEAUFORT MCAS  PTSUNNY   83  75  77 N9        29.94F HX  90
BEAUFORT ARPT  MOCLDY    77  77 100 CALM      29.94F
HILTON HEAD IS RAIN      84  73  70 S5        29.97F HX  91
GEORGETOWN     NOT AVBL
WALTERBORO     PTCLDY    86  68  54 NW3       29.95F
ORANGEBURG     MOSUNNY   86  68  54 NW3       29.95F
BARNWELL       FAIR      88  70  55 NW3       29.95F HX  92
AIKEN          MOCLDY    86  70  58 CALM      30.00F HX  90
MANNING        FAIR      86  72  62 N3        29.94F HX  92
KINGSTREE      NOT AVBL
COLUMBIA       MOSUNNY   89  66  46 CALM      29.94F HX  91
SUMTER         MOSUNNY   85  66  52 VRB2      29.94F
FLORENCE       MOSUNNY   86  67  52 NE5       29.95F
MYRTLE BEACH   PTSUNNY   84  68  58 N5        29.96F
N MYRTLE BEACH MOSUNNY   84  68  58 CALM      29.95F

$$

GAZ063-065-086>088-099>101-113>116-118-119-134-136>141-150-162100-
...GEORGIA...

CITY           SKY/WX    TMP DP  RH WIND       PRES   REMARKS
SAVANNAH ARPT  LGT RAIN  88  73  61 W8        29.95F HX  95
HUNTER AAF     MOSUNNY   88  74  64 SW8       29.92F HX  96
FORT STEWART   MOSUNNY   87  71  58 VRB2      29.94F HX  93
STATESBORO     NOT AVBL
SYLVANIA       MOCLDY    87  76  69 CALM      29.94F HX  98
CLAXTON        NOT AVBL
THOMSON        MOSUNNY   88  76  67 N5        30.00F HX  99
AUGUSTA-BUSH   MOSUNNY   89  68  49 VRB5      29.94F HX  93
AUGUSTA-DANIEL SUNNY     86  66  51 VRB5      29.97F
SWAINSBORO     FAIR      90  72  55 CALM      29.95F HX  96
VIDALIA        CLOUDY    79  73  83 SE3       29.97S
ALMA           PTSUNNY   84  72  67 CALM      29.96F
WAYCROSS       PTSUNNY   85  79  82 SE3       29.95F HX  98
JESUP          FAIR      88  73  62 CALM      29.95F HX  96
BRUNSWICK      CLOUDY    84  73  70 SE8       29.97S HX  91
SAINT SIMONS   CLOUDY    81  73  76 SE6       29.96F

$$

SCZ027-028-034-036>038-045-046-048>050-GAZ119-141-162100-
...LAKE AND SUPPLEMENTAL COASTAL OBSERVATIONS...

STATION/POSITION TIME  TEMP    WIND        PRES    WAVE   SWELL
                       AIR SEA DIR/SP/G            HT/PER HT/PER/DIR
                 (UTC) (F)     (DEG/KT/KT) (MB)    (FT/S) (FT/S/D)
UPR LAKE MARION  NOT AVBL
WINYAH BAY       2000   79     160/  6     1014.0F
LAKE MURRAY      2000   84     200/  5/  5 1013.9S
ACE BASIN NERRS  2000   78     140/  3     1014.0F
FORT PULASKI     2000   84     150/  7/  9 1014.3F
SAPELO ISLAND    2000   88        CALM     1015.0F

$$

ANZ835-935-AMZ111-154-330-350-352-354-374-450-454-472-162100-
...C-MAN AND BUOY OBSERVATIONS...

STATION/POSITION TIME  TEMP    WIND        PRES    WAVE   SWELL
                       AIR SEA DIR/SP/G            HT/PER HT/PER/DIR
                 (UTC) (F)     (DEG/KT/KT) (MB)    (FT/S) (FT/S/D)
FOLLY BEACH CMAN 2000   80     130/  5/  7 1015.1F
BUOY 41004       2000   80 84  330/  4/  4 1014.5F   1/ 7   2/ 7
BUOY 41008       2000   80 85  190/  2/  4 1014.6F   2/ 8   2/ 90/ 8
5E ST. MARYS GA  2000      84                N/A     1/ 8
FRYING PAN BUOY  NOT AVBL
BUOY 41025       2000   77     280/  4/  6 1014.7F   2/ 8   2/ 40/ 8
CAPE LOOKOUT NC  2000   78     180/  8/  8 1014.5F
BUOY 41002       1946   79 83  250/  6/  8 1015.3F   3/13   3/100/13
BUOY 41010       2000   78 85  200/  6/ 10 1015.9S   2/13   2/100/13
BUOY 41012       NOT AVBL
ST AUGUSTINE FL  2000   83     250/  6/  9 1016.0F
CAPERS NEARSHORE 1900   74     350/  6/  8   N/A
FRIPP NEARSHORE  NOT AVBL


$$


USA.gov is the U.S. government's official web portal to all federal, state and local government web resources and services.